START_TIME,STEP,MOV.,M34,t_acc.,L5,t_acc.,L18,t_acc.,L14,t_acc.
1979-08-06 09:00:23.230 ,0,0,0.,12.0,0.,12.0,0.,12.0,0.,12.0
1979-08-06 09:00:35.230 ,0,0,0.,12.0,0.,12.0,0.,12.0,0.,12.0
1979-08-06 09:00:47.230 ,0,1,0.,12.0,0.,12.0,0.,12.0,0.,12.0
1979-08-06 09:00:59.230 ,0,1,0.,12.0,0.,12.0,0.,12.0,0.,12.0
1979-08-06 09:01:11.230 ,0,0,0.,12.0,0.,12.0,0.,12.0,0.,12.0
1979-08-06 09:01:23.230 ,0,0,0.,12.0,0.,12.0,0.,12.0,0.,12.0
1979-08-06 09:01:35.230 ,1,1,0.,12.0,0.,12.0,0.,12.0,0.,12.0
1979-08-06 09:01:47.230 ,1,1,0.,12.0,0.,12.0,0.,12.0,0.,12.0
1979-08-06 09:01:59.230 ,1,0,0.,12.0,0.,12.0,0.,12.0,0.,12.0
1979-08-06 09:02:11.230 ,1,0,0.,12.0,0.,12.0,0.,12.0,0.,12.0
1979-08-06 09:02:23.230 ,2,1,0.,12.0,0.,12.0,0.,12.0,0.,12.0
1979-08-06 09:02:35.230 ,2,1,0.,12.0,0.,12.0,0.,12.0,0.,12.0
1979-08-06 09:02:47.230 ,2,0,0.,12.0,0.,12.0,0.,12.0,0.,12.0
1979-08-06 09:02:59.230 ,2,0,0.,12.0,0.,12.0,0.,12.0,0.,12.0
1979-08-06 09:03:11.230 ,3,1,0.,12.0,0.,12.0,0.,12.0,0.,12.0
1979-08-06 09:03:23.230 ,3,1,0.,12.0,0.,12.0,0.,12.0,0.,12.0
1979-08-06 09:03:35.230 ,3,0,0.,12.0,0.,12.0,0.,12.0,0.,12.0
1979-08-06 09:03:47.230 ,3,0,0.,12.0,0.,12.0,0.,12.0,0.,12.0
1979-08-06 09:03:59.230 ,4,1,0.,12.0,0.,12.0,0.,12.0,0.,12.0
1979-08-06 09:04:11.230 ,4,1,0.,12.0,0.,12.0,0.,12.0,0.,12.0
1979-08-06 09:04:23.230 ,4,0,0.,12.0,0.,12.0,0.,12.0,0.,12.0
1979-08-06 09:04:35.230 ,4,0,0.,12.0,0.,12.0,0.,12.0,0.,12.0
1979-08-06 09:04:47.230 ,5,1,0.,12.0,0.,12.0,0.,12.0,0.,12.0
1979-08-06 09:04:59.230 ,5,1,0.,12.0,0.,12.0,0.,12.0,0.,12.0
1979-08-06 09:05:11.230 ,5,0,0.,12.0,0.,12.0,0.,12.0,1.,12.0
1979-08-06 09:05:23.230 ,5,0,0.,12.0,0.,12.0,0.,12.0,0.,12.0
1979-08-06 09:05:35.230 ,6,1,0.,12.0,0.,12.0,0.,12.0,0.,12.0
1979-08-06 09:05:47.230 ,6,1,0.,12.0,0.,12.0,0.,12.0,0.,12.0
1979-08-06 09:05:59.230 ,0,0,0.,12.0,0.,12.0,0.,12.0,0.,12.0
1979-08-06 09:06:11.230 ,0,0,0.,12.0,0.,12.0,0.,12.0,0.,12.0
1979-08-06 09:06:59.830 ,7,0,,0,,0,,0,,0
1979-08-06 09:07:11.830 ,7,0,0.,12.0,0.,12.0,0.,12.0,0.,12.0
1979-08-06 09:07:11.230 ,4,1,0.,12.0,0.,12.0,0.,12.0,0.,12.0
1979-08-06 09:07:23.230 ,4,1,0.,12.0,0.,12.0,0.,12.0,0.,12.0
1979-08-06 09:07:35.230 ,0,1,0.,12.0,0.,12.0,0.,12.0,0.,12.0
1979-08-06 09:07:47.230 ,0,1,0.,12.0,0.,12.0,0.,12.0,0.,12.0
1979-08-06 09:07:59.230 ,3,1,1.,12.0,0.,12.0,0.,12.0,0.,12.0
1979-08-06 09:08:11.230 ,3,1,0.,12.0,0.,12.0,0.,12.0,0.,12.0
1979-08-06 09:08:23.230 ,7,1,0.,12.0,0.,12.0,0.,12.0,0.,12.0
1979-08-06 09:08:35.230 ,7,1,0.,12.0,0.,12.0,0.,12.0,0.,12.0
1979-08-06 09:08:47.230 ,4,1,0.,12.0,0.,12.0,0.,12.0,0.,12.0
1979-08-06 09:08:59.230 ,4,1,0.,12.0,0.,12.0,0.,12.0,0.,12.0
1979-08-06 09:09:11.230 ,0,1,0.,12.0,0.,12.0,0.,12.0,0.,12.0
1979-08-06 09:09:23.230 ,0,1,0.,12.0,0.,12.0,0.,12.0,0.,12.0
1979-08-06 09:09:35.230 ,3,1,0.,12.0,0.,12.0,0.,12.0,0.,12.0
1979-08-06 09:09:47.230 ,3,1,0.,12.0,0.,12.0,0.,12.0,0.,12.0
1979-08-06 09:09:59.230 ,7,1,0.,12.0,0.,12.0,0.,12.0,0.,12.0
1979-08-06 09:10:11.230 ,7,1,0.,12.0,0.,12.0,0.,12.0,0.,12.0
1979-08-06 09:10:23.230 ,4,1,0.,12.0,0.,12.0,0.,12.0,0.,12.0
1979-08-06 09:10:35.230 ,4,1,0.,12.0,0.,12.0,0.,12.0,0.,12.0
1979-08-06 09:10:47.230 ,0,1,0.,12.0,0.,12.0,0.,12.0,0.,12.0
1979-08-06 09:10:59.230 ,0,1,0.,12.0,0.,12.0,0.,12.0,0.,12.0
1979-08-06 09:11:11.230 ,3,1,0.,12.0,0.,12.0,0.,12.0,0.,12.0
1979-08-06 09:11:23.230 ,3,1,0.,12.0,0.,12.0,0.,12.0,0.,12.0
1979-08-06 09:11:35.230 ,7,1,0.,12.0,0.,12.0,0.,12.0,0.,12.0
1979-08-06 09:11:47.230 ,7,1,0.,12.0,0.,12.0,0.,12.0,0.,12.0
1979-08-06 09:11:59.230 ,4,1,0.,12.0,0.,12.0,0.,12.0,0.,12.0
1979-08-06 09:12:11.230 ,4,1,0.,12.0,0.,12.0,0.,12.0,0.,12.0
1979-08-06 09:12:23.230 ,0,1,0.,12.0,0.,12.0,0.,12.0,0.,12.0
1979-08-06 09:12:35.230 ,0,1,0.,12.0,0.,12.0,0.,12.0,0.,12.0
1979-08-06 09:12:47.230 ,3,1,0.,12.0,0.,12.0,0.,12.0,0.,12.0
1979-08-06 09:12:59.230 ,3,1,0.,12.0,0.,12.0,0.,12.0,0.,12.0
1979-08-06 09:13:11.230 ,7,1,0.,12.0,0.,12.0,0.,12.0,0.,12.0
1979-08-06 09:13:23.230 ,7,1,0.,12.0,0.,12.0,0.,12.0,0.,12.0
1979-08-06 09:13:35.230 ,4,1,0.,12.0,0.,12.0,0.,12.0,0.,12.0
1979-08-06 09:13:47.230 ,4,1,0.,12.0,0.,12.0,0.,12.0,0.,12.0
1979-08-06 09:13:59.230 ,0,1,0.,12.0,0.,12.0,0.,12.0,0.,12.0
1979-08-06 09:14:11.230 ,0,1,0.,12.0,0.,12.0,0.,12.0,0.,12.0
1979-08-06 09:14:23.230 ,3,1,0.,12.0,0.,12.0,0.,12.0,0.,12.0
1979-08-06 09:14:35.230 ,3,1,0.,12.0,0.,12.0,0.,12.0,0.,12.0
1979-08-06 09:14:47.230 ,7,1,0.,12.0,0.,12.0,0.,12.0,0.,12.0
1979-08-06 09:14:59.230 ,7,1,0.,12.0,0.,12.0,0.,12.0,0.,12.0
1979-08-06 09:15:11.230 ,4,1,0.,12.0,0.,12.0,0.,12.0,0.,12.0
1979-08-06 09:15:23.230 ,4,1,0.,12.0,0.,12.0,0.,12.0,0.,12.0
1979-08-06 09:15:35.230 ,0,1,0.,12.0,0.,12.0,0.,12.0,0.,12.0
1979-08-06 09:15:47.230 ,0,1,0.,12.0,0.,12.0,0.,12.0,0.,12.0
1979-08-06 09:15:59.230 ,3,1,0.,12.0,0.,12.0,0.,12.0,0.,12.0
1979-08-06 09:16:11.230 ,3,1,0.,12.0,0.,12.0,0.,12.0,0.,12.0
1979-08-06 09:16:23.230 ,7,1,0.,12.0,0.,12.0,0.,12.0,0.,12.0
1979-08-06 09:16:35.230 ,7,1,0.,12.0,0.,12.0,0.,12.0,0.,12.0
1979-08-06 09:16:47.230 ,4,1,0.,12.0,0.,12.0,0.,12.0,0.,12.0
1979-08-06 09:16:59.230 ,4,1,0.,12.0,0.,12.0,0.,12.0,0.,12.0
1979-08-06 09:17:11.230 ,0,1,0.,12.0,0.,12.0,0.,12.0,0.,12.0
1979-08-06 09:17:23.230 ,0,1,0.,12.0,0.,12.0,0.,12.0,0.,12.0
1979-08-06 09:17:35.230 ,0,0,0.,12.0,0.,12.0,0.,12.0,0.,12.0
1979-08-06 09:17:47.230 ,0,0,0.,12.0,0.,12.0,0.,12.0,0.,12.0
1979-08-06 09:17:59.230 ,0,0,0.,12.0,0.,12.0,0.,12.0,0.,12.0
1979-08-06 09:18:11.230 ,0,0,0.,12.0,0.,12.0,0.,12.0,0.,12.0
1979-08-06 09:18:23.230 ,5,1,0.,12.0,0.,12.0,0.,12.0,0.,12.0
1979-08-06 09:18:35.230 ,5,1,0.,12.0,0.,12.0,0.,12.0,0.,12.0
1979-08-06 09:18:47.230 ,5,0,0.,12.0,0.,12.0,0.,12.0,1.,12.0
1979-08-06 09:18:59.230 ,5,0,0.,12.0,0.,12.0,0.,12.0,0.,12.0
1979-08-06 09:19:11.230 ,4,1,0.,12.0,0.,12.0,0.,12.0,0.,12.0
1979-08-06 09:19:23.230 ,4,1,0.,12.0,0.,12.0,0.,12.0,0.,12.0
1979-08-06 09:19:35.230 ,4,0,0.,12.0,0.,12.0,0.,12.0,0.,12.0
1979-08-06 09:19:47.230 ,4,0,0.,12.0,0.,12.0,0.,12.0,0.,12.0
1979-08-06 09:19:59.230 ,3,1,0.,12.0,0.,12.0,0.,12.0,0.,12.0
1979-08-06 09:20:11.230 ,3,1,0.,12.0,0.,12.0,0.,12.0,0.,12.0
1979-08-06 09:20:23.230 ,3,0,0.,12.0,0.,12.0,0.,12.0,0.,12.0
1979-08-06 09:20:35.230 ,3,0,0.,12.0,0.,12.0,0.,12.0,0.,12.0
1979-08-06 09:20:47.230 ,2,1,0.,12.0,0.,12.0,0.,12.0,0.,12.0
1979-08-06 09:20:59.230 ,2,1,0.,12.0,0.,12.0,0.,12.0,0.,12.0
1979-08-06 09:21:11.230 ,2,0,0.,12.0,0.,12.0,0.,12.0,0.,12.0
1979-08-06 09:21:23.230 ,2,0,0.,12.0,0.,12.0,0.,12.0,0.,12.0
1979-08-06 09:21:35.230 ,1,1,0.,12.0,0.,12.0,0.,12.0,0.,12.0
1979-08-06 09:21:47.230 ,1,1,0.,12.0,0.,12.0,0.,12.0,0.,12.0
1979-08-06 09:21:59.230 ,1,0,0.,12.0,0.,12.0,0.,12.0,0.,12.0
1979-08-06 09:22:11.230 ,1,0,0.,12.0,0.,12.0,0.,12.0,0.,12.0
1979-08-06 09:22:23.230 ,0,1,0.,12.0,0.,12.0,0.,12.0,0.,12.0
1979-08-06 09:22:35.230 ,0,1,0.,12.0,0.,12.0,0.,12.0,0.,12.0
1979-08-06 09:22:47.230 ,0,0,0.,12.0,0.,12.0,0.,12.0,0.,12.0
1979-08-06 09:22:59.230 ,0,0,0.,12.0,0.,12.0,0.,12.0,0.,12.0
1979-08-06 09:23:11.230 ,0,1,0.,12.0,0.,12.0,0.,12.0,0.,12.0
1979-08-06 09:23:23.230 ,0,1,0.,12.0,0.,12.0,0.,12.0,0.,12.0
1979-08-06 09:23:35.230 ,0,0,0.,12.0,0.,12.0,0.,12.0,0.,12.0
1979-08-06 09:23:47.230 ,0,0,0.,12.0,0.,12.0,0.,12.0,0.,12.0
1979-08-06 09:23:59.230 ,1,1,0.,12.0,0.,12.0,0.,12.0,0.,12.0
1979-08-06 09:24:11.230 ,1,1,0.,12.0,0.,12.0,0.,12.0,0.,12.0
1979-08-06 09:24:23.230 ,1,0,0.,12.0,0.,12.0,0.,12.0,0.,12.0
1979-08-06 09:24:35.230 ,1,0,0.,12.0,0.,12.0,0.,12.0,0.,12.0
1979-08-06 09:24:47.230 ,2,1,0.,12.0,0.,12.0,0.,12.0,0.,12.0
1979-08-06 09:24:59.230 ,2,1,0.,12.0,0.,12.0,0.,12.0,0.,12.0
1979-08-06 09:25:11.230 ,2,0,0.,12.0,0.,12.0,0.,12.0,0.,12.0
1979-08-06 09:25:23.230 ,2,0,0.,12.0,0.,12.0,0.,12.0,0.,12.0
1979-08-06 09:25:35.230 ,3,1,0.,12.0,0.,12.0,0.,12.0,0.,12.0
1979-08-06 09:25:47.230 ,3,1,0.,12.0,0.,12.0,0.,12.0,0.,12.0
1979-08-06 09:25:59.230 ,3,0,0.,12.0,0.,12.0,0.,12.0,0.,12.0
1979-08-06 09:26:11.230 ,3,0,0.,12.0,0.,12.0,0.,12.0,0.,12.0
1979-08-06 09:26:23.230 ,4,1,0.,12.0,0.,12.0,0.,12.0,0.,12.0
1979-08-06 09:26:35.230 ,4,1,0.,12.0,0.,12.0,0.,12.0,0.,12.0
1979-08-06 09:26:47.230 ,4,0,0.,12.0,0.,12.0,0.,12.0,0.,12.0
1979-08-06 09:26:59.230 ,4,0,0.,12.0,0.,12.0,0.,12.0,0.,12.0
1979-08-06 09:27:11.230 ,5,1,0.,12.0,0.,12.0,0.,12.0,0.,12.0
1979-08-06 09:27:23.230 ,5,1,0.,12.0,0.,12.0,0.,12.0,0.,12.0
1979-08-06 09:27:35.230 ,5,0,0.,12.0,0.,12.0,0.,12.0,0.,12.0
1979-08-06 09:27:47.230 ,5,0,0.,12.0,0.,12.0,0.,12.0,0.,12.0
1979-08-06 09:27:59.230 ,6,1,0.,12.0,0.,12.0,0.,12.0,0.,12.0
1979-08-06 09:28:11.230 ,6,1,0.,12.0,0.,12.0,0.,12.0,0.,12.0
1979-08-06 09:28:23.230 ,6,0,0.,12.0,0.,12.0,0.,12.0,0.,12.0
1979-08-06 09:28:35.230 ,6,0,0.,12.0,0.,12.0,0.,12.0,0.,12.0
1979-08-06 09:28:47.230 ,7,1,0.,12.0,0.,12.0,0.,12.0,0.,12.0
1979-08-06 09:28:59.230 ,7,1,0.,12.0,0.,12.0,0.,12.0,0.,12.0
1979-08-06 09:29:11.230 ,7,0,0.,12.0,0.,12.0,0.,12.0,0.,12.0
1979-08-06 09:29:23.230 ,7,0,0.,12.0,0.,12.0,0.,12.0,0.,12.0
1979-08-06 09:29:35.230 ,7,1,0.,12.0,0.,12.0,0.,12.0,0.,12.0
1979-08-06 09:29:47.230 ,7,1,0.,12.0,0.,12.0,0.,12.0,0.,12.0
1979-08-06 09:29:59.230 ,7,0,0.,12.0,0.,12.0,0.,12.0,0.,12.0
1979-08-06 09:30:11.230 ,7,0,0.,12.0,0.,12.0,0.,12.0,0.,12.0
1979-08-06 09:30:23.230 ,6,1,0.,12.0,0.,12.0,0.,12.0,0.,12.0
1979-08-06 09:30:35.230 ,6,1,1.,12.0,0.,12.0,0.,12.0,0.,12.0
1979-08-06 09:30:47.230 ,6,0,0.,12.0,0.,12.0,0.,12.0,0.,12.0
1979-08-06 09:30:59.230 ,6,0,0.,12.0,0.,12.0,0.,12.0,0.,12.0
1979-08-06 09:31:11.230 ,5,1,0.,12.0,0.,12.0,0.,12.0,0.,12.0
1979-08-06 09:31:23.230 ,5,1,0.,12.0,0.,12.0,0.,12.0,0.,12.0
1979-08-06 09:31:35.230 ,5,0,0.,12.0,0.,12.0,0.,12.0,0.,12.0
1979-08-06 09:31:47.230 ,5,0,0.,12.0,0.,12.0,0.,12.0,0.,12.0
1979-08-06 09:31:59.230 ,4,1,0.,12.0,0.,12.0,0.,12.0,0.,12.0
1979-08-06 09:32:11.230 ,4,1,0.,12.0,0.,12.0,0.,12.0,0.,12.0
1979-08-06 09:32:23.230 ,4,0,0.,12.0,0.,12.0,0.,12.0,0.,12.0
1979-08-06 09:32:35.230 ,4,0,0.,12.0,0.,12.0,0.,12.0,0.,12.0
1979-08-06 09:32:47.230 ,3,1,0.,12.0,0.,12.0,0.,12.0,0.,12.0
1979-08-06 09:32:59.230 ,3,1,1.,12.0,0.,12.0,0.,12.0,0.,12.0
1979-08-06 09:33:11.230 ,3,0,0.,12.0,0.,12.0,0.,12.0,0.,12.0
1979-08-06 09:33:23.230 ,3,0,0.,12.0,0.,12.0,0.,12.0,0.,12.0
1979-08-06 09:33:35.230 ,2,1,0.,12.0,0.,12.0,0.,12.0,0.,12.0
1979-08-06 09:33:47.230 ,2,1,0.,12.0,0.,12.0,0.,12.0,0.,12.0
1979-08-06 09:33:59.230 ,2,0,0.,12.0,0.,12.0,0.,12.0,0.,12.0
1979-08-06 09:34:11.230 ,2,0,0.,12.0,0.,12.0,0.,12.0,0.,12.0
1979-08-06 09:34:23.230 ,1,1,0.,12.0,0.,12.0,0.,12.0,0.,12.0
1979-08-06 09:34:35.230 ,1,1,0.,12.0,0.,12.0,0.,12.0,0.,12.0
1979-08-06 09:34:47.230 ,1,0,0.,12.0,0.,12.0,0.,12.0,0.,12.0
1979-08-06 09:34:59.230 ,1,0,,0,,0,,0,,0
1979-08-06 09:35:11.230 ,0,1,0.,12.0,0.,12.0,0.,12.0,0.,12.0
1979-08-06 09:35:23.230 ,0,1,0.,12.0,0.,12.0,0.,12.0,0.,12.0
1979-08-06 09:35:35.230 ,0,0,0.,12.0,0.,12.0,0.,12.0,0.,12.0
1979-08-06 09:35:47.230 ,0,0,0.,12.0,0.,12.0,0.,12.0,0.,12.0
1979-08-06 09:35:59.230 ,0,1,0.,12.0,0.,12.0,0.,12.0,0.,12.0
1979-08-06 09:36:11.230 ,0,1,0.,12.0,0.,12.0,0.,12.0,0.,12.0
1979-08-06 09:36:23.230 ,0,0,0.,12.0,0.,12.0,0.,12.0,0.,12.0
1979-08-06 09:36:35.230 ,0,0,0.,12.0,0.,12.0,0.,12.0,0.,12.0
1979-08-06 09:36:47.230 ,1,1,0.,12.0,0.,12.0,0.,12.0,0.,12.0
1979-08-06 09:36:59.230 ,1,1,0.,12.0,0.,12.0,0.,12.0,0.,12.0
1979-08-06 09:37:11.230 ,1,0,0.,12.0,0.,12.0,0.,12.0,0.,12.0
1979-08-06 09:37:23.230 ,1,0,0.,12.0,0.,12.0,0.,12.0,0.,12.0
1979-08-06 09:37:35.230 ,2,1,0.,12.0,0.,12.0,0.,12.0,0.,12.0
1979-08-06 09:37:47.230 ,2,1,0.,12.0,0.,12.0,0.,12.0,0.,12.0
1979-08-06 09:37:59.230 ,2,0,0.,12.0,0.,12.0,0.,12.0,0.,12.0
1979-08-06 09:38:11.230 ,2,0,0.,12.0,0.,12.0,0.,12.0,0.,12.0
1979-08-06 09:38:23.230 ,3,1,0.,12.0,0.,12.0,0.,12.0,0.,12.0
1979-08-06 09:38:35.230 ,3,1,0.,12.0,0.,12.0,0.,12.0,1.,12.0
1979-08-06 09:38:47.230 ,3,0,0.,12.0,0.,12.0,0.,12.0,0.,12.0
1979-08-06 09:38:59.230 ,3,0,0.,12.0,0.,12.0,0.,12.0,0.,12.0
1979-08-06 09:39:11.230 ,4,1,0.,12.0,0.,12.0,0.,12.0,0.,12.0
1979-08-06 09:39:23.230 ,4,1,0.,12.0,0.,12.0,0.,12.0,0.,12.0
1979-08-06 09:39:35.230 ,4,0,0.,12.0,0.,12.0,0.,12.0,0.,12.0
1979-08-06 09:39:47.230 ,4,0,0.,12.0,0.,12.0,0.,12.0,0.,12.0
1979-08-06 09:39:59.230 ,5,1,0.,12.0,0.,12.0,0.,12.0,0.,12.0
1979-08-06 09:40:11.230 ,5,1,0.,12.0,0.,12.0,0.,12.0,0.,12.0
1979-08-06 09:40:23.230 ,5,0,0.,12.0,0.,12.0,0.,12.0,0.,12.0
1979-08-06 09:40:35.230 ,5,0,0.,12.0,0.,12.0,0.,12.0,0.,12.0
1979-08-06 09:40:47.230 ,6,1,0.,12.0,0.,12.0,0.,12.0,0.,12.0
1979-08-06 09:40:59.230 ,6,1,0.,12.0,0.,12.0,0.,12.0,0.,12.0
1979-08-06 09:41:11.230 ,6,0,0.,12.0,0.,12.0,0.,12.0,0.,12.0
1979-08-06 09:41:23.230 ,6,0,0.,12.0,0.,12.0,0.,12.0,0.,12.0
1979-08-06 09:41:35.230 ,7,1,0.,12.0,0.,12.0,0.,12.0,0.,12.0
1979-08-06 09:41:47.230 ,7,1,0.,12.0,0.,12.0,0.,12.0,0.,12.0
1979-08-06 09:41:59.230 ,7,0,0.,12.0,0.,12.0,0.,12.0,0.,12.0
1979-08-06 09:42:11.230 ,7,0,0.,12.0,0.,12.0,0.,12.0,0.,12.0
1979-08-06 09:42:23.230 ,7,1,0.,12.0,0.,12.0,0.,12.0,0.,12.0
1979-08-06 09:42:35.230 ,7,1,0.,12.0,0.,12.0,0.,12.0,0.,12.0
1979-08-06 09:42:47.230 ,7,0,0.,12.0,0.,12.0,0.,12.0,0.,12.0
1979-08-06 09:42:59.230 ,7,0,0.,12.0,0.,12.0,0.,12.0,0.,12.0
1979-08-06 09:43:11.230 ,6,1,0.,12.0,0.,12.0,0.,12.0,0.,12.0
1979-08-06 09:43:23.230 ,6,1,0.,12.0,0.,12.0,0.,12.0,0.,12.0
1979-08-06 09:43:35.230 ,6,0,0.,12.0,0.,12.0,0.,12.0,0.,12.0
1979-08-06 09:43:47.230 ,6,0,0.,12.0,0.,12.0,0.,12.0,0.,12.0
1979-08-06 09:43:59.230 ,5,1,0.,12.0,0.,12.0,0.,12.0,0.,12.0
1979-08-06 09:44:11.230 ,5,1,0.,12.0,0.,12.0,0.,12.0,0.,12.0
1979-08-06 09:44:23.230 ,5,0,0.,12.0,0.,12.0,0.,12.0,0.,12.0
1979-08-06 09:44:35.230 ,5,0,0.,12.0,0.,12.0,0.,12.0,0.,12.0
1979-08-06 09:44:47.230 ,4,1,0.,12.0,0.,12.0,0.,12.0,0.,12.0
1979-08-06 09:44:59.230 ,4,1,0.,12.0,0.,12.0,0.,12.0,0.,12.0
1979-08-06 09:45:11.230 ,4,0,0.,12.0,0.,12.0,0.,12.0,0.,12.0
1979-08-06 09:45:23.230 ,4,0,0.,12.0,0.,12.0,0.,12.0,0.,12.0
1979-08-06 09:45:35.230 ,3,1,0.,12.0,0.,12.0,0.,12.0,0.,12.0
1979-08-06 09:45:47.230 ,3,1,0.,12.0,0.,12.0,0.,12.0,0.,12.0
1979-08-06 09:45:59.230 ,3,0,0.,12.0,0.,12.0,0.,12.0,0.,12.0
1979-08-06 09:46:11.230 ,3,0,0.,12.0,0.,12.0,0.,12.0,0.,12.0
1979-08-06 09:46:23.230 ,2,1,0.,12.0,0.,12.0,0.,12.0,0.,12.0
1979-08-06 09:46:35.230 ,2,1,0.,12.0,0.,12.0,0.,12.0,0.,12.0
1979-08-06 09:46:47.230 ,2,0,0.,12.0,0.,12.0,0.,12.0,0.,12.0
1979-08-06 09:46:59.230 ,2,0,0.,12.0,0.,12.0,0.,12.0,0.,12.0
1979-08-06 09:47:11.230 ,1,1,0.,12.0,0.,12.0,0.,12.0,0.,12.0
1979-08-06 09:47:23.230 ,1,1,0.,12.0,0.,12.0,0.,12.0,0.,12.0
1979-08-06 09:47:35.230 ,1,0,0.,12.0,0.,12.0,0.,12.0,0.,12.0
1979-08-06 09:47:47.230 ,1,0,0.,12.0,0.,12.0,0.,12.0,0.,12.0
1979-08-06 09:47:59.230 ,0,1,0.,12.0,0.,12.0,0.,12.0,0.,12.0
1979-08-06 09:48:11.230 ,0,1,0.,12.0,0.,12.0,0.,12.0,0.,12.0
1979-08-06 09:48:23.230 ,0,0,0.,12.0,0.,12.0,0.,12.0,0.,12.0
1979-08-06 09:48:35.230 ,0,0,0.,12.0,0.,12.0,0.,12.0,0.,12.0
1979-08-06 09:48:47.230 ,0,1,0.,12.0,0.,12.0,0.,12.0,0.,12.0
1979-08-06 09:48:59.230 ,0,1,0.,12.0,0.,12.0,0.,12.0,0.,12.0
1979-08-06 09:49:11.230 ,0,0,0.,12.0,0.,12.0,0.,12.0,0.,12.0
1979-08-06 09:49:23.230 ,0,0,0.,12.0,0.,12.0,0.,12.0,0.,12.0
1979-08-06 09:49:35.230 ,1,1,0.,12.0,0.,12.0,0.,12.0,0.,12.0
1979-08-06 09:49:47.230 ,1,1,0.,12.0,0.,12.0,0.,12.0,0.,12.0
1979-08-06 09:49:59.230 ,1,0,0.,12.0,0.,12.0,0.,12.0,0.,12.0
1979-08-06 09:50:11.230 ,1,0,0.,12.0,0.,12.0,0.,12.0,0.,12.0
1979-08-06 09:50:23.230 ,2,1,0.,12.0,0.,12.0,0.,12.0,0.,12.0
1979-08-06 09:50:35.230 ,2,1,0.,12.0,0.,12.0,0.,12.0,0.,12.0
1979-08-06 09:50:47.230 ,2,0,0.,12.0,0.,12.0,0.,12.0,0.,12.0
1979-08-06 09:50:59.230 ,2,0,0.,12.0,0.,12.0,0.,12.0,0.,12.0
1979-08-06 09:51:11.230 ,3,1,0.,12.0,0.,12.0,0.,12.0,0.,12.0
1979-08-06 09:51:23.230 ,3,1,0.,12.0,0.,12.0,0.,12.0,0.,12.0
1979-08-06 09:51:35.230 ,3,0,0.,12.0,0.,12.0,0.,12.0,0.,12.0
1979-08-06 09:51:47.230 ,3,0,0.,12.0,0.,12.0,0.,12.0,0.,12.0
1979-08-06 09:51:59.230 ,4,1,0.,12.0,0.,12.0,0.,12.0,0.,12.0
1979-08-06 09:52:11.230 ,4,1,0.,12.0,0.,12.0,0.,12.0,0.,12.0
1979-08-06 09:52:23.230 ,4,0,0.,12.0,0.,12.0,0.,12.0,0.,12.0
1979-08-06 09:52:35.230 ,4,0,0.,12.0,0.,12.0,0.,12.0,0.,12.0
1979-08-06 09:52:47.230 ,5,1,0.,12.0,0.,12.0,0.,12.0,0.,12.0
1979-08-06 09:52:59.230 ,5,1,0.,12.0,0.,12.0,0.,12.0,0.,12.0
1979-08-06 09:53:11.230 ,5,0,0.,12.0,0.,12.0,0.,12.0,0.,12.0
1979-08-06 09:53:23.230 ,5,0,0.,12.0,0.,12.0,0.,12.0,0.,12.0
1979-08-06 09:53:35.230 ,6,1,0.,12.0,0.,12.0,0.,12.0,0.,12.0
1979-08-06 09:53:47.230 ,6,1,0.,12.0,0.,12.0,0.,12.0,0.,12.0
1979-08-06 09:53:59.230 ,6,0,0.,12.0,0.,12.0,0.,12.0,0.,12.0
1979-08-06 09:54:11.230 ,6,0,0.,12.0,0.,12.0,0.,12.0,0.,12.0
1979-08-06 09:54:23.230 ,7,0,0.,12.0,0.,12.0,0.,12.0,0.,12.0
1979-08-06 09:54:35.230 ,7,0,0.,12.0,0.,12.0,0.,12.0,0.,12.0
1979-08-06 09:54:47.230 ,7,0,0.,12.0,0.,12.0,0.,12.0,0.,12.0
1979-08-06 09:54:59.230 ,7,0,0.,12.0,0.,12.0,0.,12.0,0.,12.0
1979-08-06 09:55:11.230 ,4,1,0.,12.0,0.,12.0,0.,12.0,0.,12.0
1979-08-06 09:55:23.230 ,4,1,0.,12.0,0.,12.0,0.,12.0,0.,12.0
1979-08-06 09:55:35.230 ,0,1,0.,12.0,0.,12.0,0.,12.0,0.,12.0
1979-08-06 09:55:47.230 ,0,1,0.,12.0,0.,12.0,0.,12.0,0.,12.0
1979-08-06 09:55:59.230 ,3,1,0.,12.0,0.,12.0,0.,12.0,0.,12.0
1979-08-06 09:56:11.230 ,3,1,0.,12.0,0.,12.0,0.,12.0,0.,12.0
1979-08-06 09:56:23.230 ,7,1,0.,12.0,0.,12.0,0.,12.0,0.,12.0
1979-08-06 09:56:35.230 ,7,1,0.,12.0,0.,12.0,0.,12.0,0.,12.0
1979-08-06 09:56:47.230 ,4,1,0.,12.0,0.,12.0,0.,12.0,0.,12.0
1979-08-06 09:56:59.230 ,4,1,0.,12.0,0.,12.0,0.,12.0,0.,12.0
1979-08-06 09:57:11.230 ,0,1,0.,12.0,0.,12.0,0.,12.0,0.,12.0
1979-08-06 09:57:23.230 ,0,1,0.,12.0,0.,12.0,0.,12.0,0.,12.0
1979-08-06 09:57:35.230 ,3,1,0.,12.0,0.,12.0,0.,12.0,0.,12.0
1979-08-06 09:57:47.230 ,3,1,0.,12.0,0.,12.0,0.,12.0,0.,12.0
1979-08-06 09:57:59.230 ,7,1,0.,12.0,0.,12.0,0.,12.0,0.,12.0
1979-08-06 09:58:11.230 ,7,1,0.,12.0,0.,12.0,0.,12.0,0.,12.0
1979-08-06 09:58:23.230 ,4,1,0.,12.0,0.,12.0,0.,12.0,0.,12.0
1979-08-06 09:58:35.230 ,4,1,0.,12.0,0.,12.0,0.,12.0,0.,12.0
1979-08-06 09:58:47.230 ,0,1,0.,12.0,0.,12.0,0.,12.0,0.,12.0
1979-08-06 09:58:59.230 ,0,1,0.,12.0,0.,12.0,0.,12.0,0.,12.0
1979-08-06 09:59:11.230 ,3,1,0.,12.0,0.,12.0,0.,12.0,0.,12.0
1979-08-06 09:59:23.230 ,3,1,0.,12.0,0.,12.0,0.,12.0,0.,12.0
1979-08-06 09:59:35.230 ,7,1,0.,12.0,0.,12.0,0.,12.0,0.,12.0
1979-08-06 09:59:47.230 ,7,1,0.,12.0,0.,12.0,0.,12.0,0.,12.0
1979-08-06 09:59:59.230 ,4,1,0.,12.0,0.,12.0,0.,12.0,0.,12.0
1979-08-06 10:00:11.230 ,4,1,0.,12.0,0.,12.0,0.,12.0,0.,12.0
1979-08-06 10:00:23.230 ,0,1,0.,12.0,0.,12.0,0.,12.0,0.,12.0
1979-08-06 10:00:35.230 ,0,1,0.,12.0,0.,12.0,0.,12.0,0.,12.0
1979-08-06 10:00:47.230 ,3,1,0.,12.0,0.,12.0,0.,12.0,0.,12.0
1979-08-06 10:00:59.230 ,3,1,0.,12.0,0.,12.0,0.,12.0,0.,12.0
1979-08-06 10:01:11.230 ,7,1,0.,12.0,0.,12.0,0.,12.0,0.,12.0
1979-08-06 10:01:23.230 ,7,1,0.,12.0,0.,12.0,0.,12.0,0.,12.0
1979-08-06 10:01:35.230 ,4,1,0.,12.0,0.,12.0,0.,12.0,0.,12.0
1979-08-06 10:01:47.230 ,4,1,0.,12.0,0.,12.0,0.,12.0,0.,12.0
1979-08-06 10:01:59.230 ,0,1,0.,12.0,0.,12.0,0.,12.0,0.,12.0
1979-08-06 10:02:11.230 ,0,1,0.,12.0,0.,12.0,0.,12.0,0.,12.0
1979-08-06 10:02:23.230 ,3,1,0.,12.0,0.,12.0,0.,12.0,0.,12.0
1979-08-06 10:02:35.230 ,3,1,0.,12.0,0.,12.0,0.,12.0,0.,12.0
1979-08-06 10:02:47.230 ,7,1,0.,12.0,0.,12.0,0.,12.0,0.,12.0
1979-08-06 10:02:59.230 ,7,1,0.,12.0,0.,12.0,0.,12.0,0.,12.0
1979-08-06 10:03:11.230 ,4,1,0.,12.0,0.,12.0,0.,12.0,0.,12.0
1979-08-06 10:03:23.230 ,4,1,0.,12.0,0.,12.0,0.,12.0,0.,12.0
1979-08-06 10:03:35.230 ,0,1,0.,12.0,0.,12.0,0.,12.0,0.,12.0
1979-08-06 10:03:47.230 ,0,1,0.,12.0,0.,12.0,0.,12.0,0.,12.0
1979-08-06 10:03:59.230 ,3,1,0.,12.0,0.,12.0,0.,12.0,0.,12.0
1979-08-06 10:04:11.230 ,3,1,0.,12.0,0.,12.0,0.,12.0,0.,12.0
1979-08-06 10:04:23.230 ,7,1,0.,12.0,0.,12.0,0.,12.0,0.,12.0
1979-08-06 10:04:35.230 ,7,1,0.,12.0,0.,12.0,0.,12.0,0.,12.0
1979-08-06 10:04:47.230 ,4,1,0.,12.0,0.,12.0,0.,12.0,0.,12.0
1979-08-06 10:04:59.230 ,4,1,0.,12.0,0.,12.0,0.,12.0,1.,12.0
1979-08-06 10:05:11.230 ,0,1,0.,12.0,0.,12.0,0.,12.0,0.,12.0
1979-08-06 10:05:23.230 ,0,1,0.,12.0,0.,12.0,0.,12.0,0.,12.0
1979-08-06 10:05:35.230 ,0,0,0.,12.0,0.,12.0,0.,12.0,0.,12.0
1979-08-06 10:05:47.230 ,0,0,0.,12.0,0.,12.0,0.,12.0,0.,12.0
1979-08-06 10:05:59.230 ,0,0,0.,12.0,0.,12.0,0.,12.0,0.,12.0
1979-08-06 10:06:11.230 ,0,0,0.,12.0,0.,12.0,0.,12.0,0.,12.0
1979-08-06 10:06:23.230 ,5,1,0.,12.0,0.,12.0,0.,12.0,0.,12.0
1979-08-06 10:06:35.230 ,5,1,0.,12.0,0.,12.0,0.,12.0,0.,12.0
1979-08-06 10:06:47.230 ,5,0,0.,12.0,0.,12.0,0.,12.0,0.,12.0
1979-08-06 10:06:59.230 ,5,0,0.,12.0,0.,12.0,0.,12.0,0.,12.0
1979-08-06 10:07:11.230 ,4,1,0.,12.0,0.,12.0,0.,12.0,0.,12.0
1979-08-06 10:07:23.230 ,4,1,0.,12.0,0.,12.0,0.,12.0,0.,12.0
1979-08-06 10:07:35.230 ,4,0,0.,12.0,0.,12.0,0.,12.0,0.,12.0
1979-08-06 10:07:47.230 ,4,0,0.,12.0,0.,12.0,0.,12.0,0.,12.0
1979-08-06 10:07:59.230 ,3,1,0.,12.0,0.,12.0,0.,12.0,0.,12.0
1979-08-06 10:08:11.230 ,3,1,0.,12.0,0.,12.0,0.,12.0,0.,12.0
1979-08-06 10:08:23.230 ,3,0,0.,12.0,0.,12.0,0.,12.0,0.,12.0
1979-08-06 10:08:35.230 ,3,0,0.,12.0,0.,12.0,0.,12.0,0.,12.0
1979-08-06 10:08:47.230 ,2,1,0.,12.0,0.,12.0,0.,12.0,0.,12.0
1979-08-06 10:08:59.230 ,2,1,0.,12.0,0.,12.0,0.,12.0,0.,12.0
1979-08-06 10:09:11.230 ,2,0,0.,12.0,0.,12.0,0.,12.0,0.,12.0
1979-08-06 10:09:23.230 ,2,0,0.,12.0,0.,12.0,0.,12.0,0.,12.0
1979-08-06 10:09:35.230 ,1,1,0.,12.0,0.,12.0,0.,12.0,0.,12.0
1979-08-06 10:09:47.230 ,1,1,0.,12.0,0.,12.0,0.,12.0,0.,12.0
1979-08-06 10:09:59.230 ,1,0,0.,12.0,0.,12.0,0.,12.0,0.,12.0
1979-08-06 10:10:11.230 ,1,0,0.,12.0,0.,12.0,0.,12.0,0.,12.0
1979-08-06 10:10:23.230 ,0,1,0.,12.0,0.,12.0,0.,12.0,0.,12.0
1979-08-06 10:10:35.230 ,0,1,0.,12.0,0.,12.0,0.,12.0,0.,12.0
1979-08-06 10:10:47.230 ,0,0,0.,12.0,0.,12.0,0.,12.0,0.,12.0
1979-08-06 10:10:59.230 ,0,0,0.,12.0,0.,12.0,0.,12.0,0.,12.0
1979-08-06 10:11:11.230 ,0,1,0.,12.0,0.,12.0,0.,12.0,0.,12.0
1979-08-06 10:11:23.230 ,0,1,0.,12.0,0.,12.0,0.,12.0,0.,12.0
1979-08-06 10:11:35.230 ,0,0,0.,12.0,0.,12.0,0.,12.0,0.,12.0
1979-08-06 10:11:47.230 ,0,0,0.,12.0,0.,12.0,0.,12.0,0.,12.0
1979-08-06 10:11:59.230 ,1,1,0.,12.0,0.,12.0,0.,12.0,0.,12.0
1979-08-06 10:12:11.230 ,1,1,0.,12.0,0.,12.0,0.,12.0,0.,12.0
1979-08-06 10:12:23.230 ,1,0,0.,12.0,0.,12.0,0.,12.0,0.,12.0
1979-08-06 10:12:35.230 ,1,0,0.,12.0,0.,12.0,0.,12.0,0.,12.0
1979-08-06 10:12:47.230 ,2,1,0.,12.0,0.,12.0,0.,12.0,0.,12.0
1979-08-06 10:12:59.230 ,2,1,0.,12.0,0.,12.0,0.,12.0,0.,12.0
1979-08-06 10:13:11.230 ,2,0,0.,12.0,0.,12.0,0.,12.0,0.,12.0
1979-08-06 10:13:23.230 ,2,0,0.,12.0,0.,12.0,0.,12.0,0.,12.0
1979-08-06 10:13:35.230 ,3,1,0.,12.0,0.,12.0,0.,12.0,0.,12.0
1979-08-06 10:13:47.230 ,3,1,0.,12.0,0.,12.0,0.,12.0,0.,12.0
1979-08-06 10:13:59.230 ,3,0,0.,12.0,0.,12.0,0.,12.0,0.,12.0
1979-08-06 10:14:11.230 ,3,0,0.,12.0,0.,12.0,0.,12.0,0.,12.0
1979-08-06 10:14:23.230 ,4,1,0.,12.0,0.,12.0,0.,12.0,0.,12.0
1979-08-06 10:14:35.230 ,4,1,0.,12.0,0.,12.0,0.,12.0,0.,12.0
1979-08-06 10:14:47.230 ,4,0,0.,12.0,0.,12.0,0.,12.0,0.,12.0
1979-08-06 10:14:59.230 ,4,0,0.,12.0,0.,12.0,0.,12.0,0.,12.0
1979-08-06 10:15:11.230 ,5,1,0.,12.0,0.,12.0,0.,12.0,0.,12.0
1979-08-06 10:15:23.230 ,5,1,0.,12.0,0.,12.0,0.,12.0,0.,12.0
1979-08-06 10:15:35.230 ,5,0,0.,12.0,0.,12.0,0.,12.0,0.,12.0
1979-08-06 10:15:47.230 ,5,0,0.,12.0,0.,12.0,0.,12.0,0.,12.0
1979-08-06 10:15:59.230 ,6,1,0.,12.0,0.,12.0,0.,12.0,0.,12.0
1979-08-06 10:16:11.230 ,6,1,0.,12.0,0.,12.0,0.,12.0,0.,12.0
1979-08-06 10:16:23.230 ,6,0,0.,12.0,0.,12.0,0.,12.0,0.,12.0
1979-08-06 10:16:35.230 ,6,0,0.,12.0,0.,12.0,0.,12.0,0.,12.0
1979-08-06 10:16:47.230 ,7,1,0.,12.0,0.,12.0,0.,12.0,0.,12.0
1979-08-06 10:16:59.230 ,7,1,0.,12.0,0.,12.0,0.,12.0,0.,12.0
1979-08-06 10:17:11.230 ,7,0,0.,12.0,0.,12.0,0.,12.0,0.,12.0
1979-08-06 10:17:23.230 ,7,0,0.,12.0,0.,12.0,0.,12.0,0.,12.0
1979-08-06 10:17:35.230 ,7,1,0.,12.0,0.,12.0,0.,12.0,0.,12.0
1979-08-06 10:17:47.230 ,7,1,0.,12.0,0.,12.0,0.,12.0,0.,12.0